User: anonymous   Login
Location: Strohbehn Observatory
(42.4649°N, 93.8239°W)
Time: 05:24:43
(UTC-05:00)
Language:

SL-16 R/B - Orbit

View from above orbital plane
View from above orbital plane
View from above satellite
View from above satellite

Ground track
Ground track

The orbit data is extracted from the following two-line orbital elements,

1 31793U 07029B   16270.44196574  .00000274  00000-0  16808-3 0  9996
2 31793  70.9748 223.1540 0002134 255.4278 243.4538 14.14365714477429
Epoch (UTC): 26 September 2016 10:36:25
Eccentricity: 0.0002134
inclination: 70.9748°
perigee height: 843 km
apogee height: 846 km
right ascension of ascending node: 223.1540°
argument of perigee: 255.4278°
revolutions per day: 14.14365714
mean anomaly at epoch: 243.4538°
orbit number at epoch: 47742

The dashed part of the orbit path shows where the satellite is in the earth's shadow,  

DLR